Simultaneous Nadir Overpasses (SNOs) Predictions

Prediction of SNOs between METOP-A and NOAA-19 Satellite Orbit:

Table of predicted SNOs for the next 14.0 days since TLE Epoch: 7/26/2019
Index Date (METOP-A) Time (METOP-A) Lat,Lon (METOP-A) SZA (METOP-A ) Date (NOAA-19) Time (NOAA-19) Lat,Lon (NOAA-19) SZA (NOAA-19 ) Distance(km) Time Diff (sec)
1 07/30/2019 01:53:16 79.84, 164.14 61.38 07/30/2019 01:52:10 79.82, 164.13 61.35 1.88 66
2 07/30/2019 02:43:58 -79.82, -28.74 118.65 07/30/2019 02:43:10 -79.83, -28.67 118.65 1.88 48
3 07/30/2019 03:34:38 79.83, 138.69 61.38 07/30/2019 03:34:11 79.83, 138.57 61.37 2.45 27
4 07/30/2019 04:25:19 -79.84, -53.91 118.61 07/30/2019 04:25:10 -79.81, -53.93 118.64 3.23 9
5 07/30/2019 05:16:00 79.82, 113.24 61.38 07/30/2019 05:16:11 79.81, 113.31 61.37 1.57 11
6 07/30/2019 06:06:41 -79.83, -79.36 118.61 07/30/2019 06:07:11 -79.81, -79.50 118.62 3.00 30
7 07/30/2019 06:57:22 79.80, 87.79 61.38 07/30/2019 06:58:12 79.81, 87.75 61.39 1.38 50




NCC Satellite Simultaneous Nadir Overpasses (SNOs) Prediction Service
